GFSGL_con_sbcape_000.txt.gz
CAPE
0 0 8 20 8 1 0 0 0 0 0 0 0 26 40 30 3 8 0 18 38 35 30 15 0 0 0 0 0 0 1 1 4 38 29 45 3 2 2 0 0 0 0
0 0 2 4 0 0 0 0 0 0 0 0 0 35 29 9 0 54 63 1 1 5 4 29 9 3 0 0 0 0 0 17 9 12 44 57 36 5 5 6 0 0 0
0 0 2 0 0 21 0 0 0 0 0 4 21 44 47 3 20 25 0 0 0 0 0 44 55 3 1 0 0 2 2 10 15 30 56 15 6 8 0 0 0 0 0
0 0 0 0 0 0 0 0 0 0 0 3 56 104 151 57 50 34 0 0 0 0 7 25 23 18 5 1 5 4 1 7 31 31 30 9 0 0 0 0 0 0 0
0 0 0 0 0 2 0 0 0 0 0 0 28 82 65 81 112 70 28 29 9 1 0 1 1 8 5 31 24 18 29 19 23 3 0 0 0 0 0 0 0 0 0
0 0 0 0 5 2 0 0 0 0 0 0 0 8 40 112 93 7 42 47 26 8 7 4 0 0 0 36 56 38 5 1 0 0 0 0 0 0 0 0 0 0 0
0 0 0 0 0 0 0 0 0 0 0 0 0 0 0 0 0 41 48 61 65 28 0 16 65 34 20 4 0 2 0 1 0 0 0 0 0 0 0 0 0 0 0
0 0 0 0 0 0 0 0 0 0 0 0 0 0 0 0 0 22 40 41 42 6 4 1 17 7 10 0 0 0 0 0 0 0 0 0 0 0 0 0 0 0 0
0 0 0 0 0 0 0 0 0 0 0 0 0 0 0 0 0 0 7 1 0 0 0 0 0 0 0 0 0 0 0 0 0 0 0 0 0 0 0 0 0 0 0
0 0 0 0 0 0 0 0 0 0 0 0 0 0 0 0 0 0 0 0 0 0 0 0 0 0 0 0 0 0 0 0 0 0 0 0 0 0 0 0 0 0 0
0 0 0 0 0 0 0 0 0 0 0 0 0 0 0 0 0 0 0 0 0 0 0 0 0 0 0 0 0 0 0 0 0 0 0 0 0 0 0 0 0 0 0
0 0 0 0 0 0 0 0 0 0 0 0 0 0 0 0 0 0 0 0 0 0 0 0 0 0 0 0 0 0 0 0 0 0 0 0 0 0 0 0 0 0 0
0 0 0 0 0 0 0 0 0 0 0 0 0 0 0 0 0 0 0 0 0 0 0 0 0 0 0 0 0 0 0 0 0 0 0 0 0 0 0 0 0 0 0
0 0 0 0 0 10 3 0 0 0 0 0 0 0 0 0 0 0 0 0 0 0 0 0 0 0 0 0 0 0 0 0 0 0 0 0 0 0 0 0 0 0 0
0 0 0 0 0 1 19 4 0 0 0 0 0 0 0 0 0 0 0 0 0 0 0 0 0 0 0 0 0 0 0 0 0 0 0 0 0 0 0 0 0 0 0
0 0 0 0 0 0 0 0 0 0 0 0 0 0 0 0 0 0 0 0 0 0 0 0 0 0 0 0 0 0 0 0 0 0 0 0 0 0 0 0 0 0 0
0 0 0 0 0 0 0 0 0 0 0 0 0 0 0 0 0 0 0 0 0 0 0 0 0 0 0 0 0 0 0 0 0 0 0 0 0 0 0 0 0 0 0
0 0 0 0 0 0 0 0 0 0 0 0 0 0 0 0 0 0 0 0 0 0 0 0 0 0 0 0 0 0 0 0 0 0 0 0 0 0 0 0 0 0 0
0 0 0 0 0 0 0 0 0 0 0 0 0 0 0 0 0 0 0 0 0 0 0 0 0 0 0 0 0 0 0 0 0 0 0 0 0 0 0 0 0 0 0
0 0 0 0 0 0 0 0 0 0 0 0 0 0 0 0 0 0 0 0 0 0 0 0 0 0 0 0 0 0 0 0 0 0 0 0 0 0 0 0 0 0 0
0 0 0 0 0 0 0 0 0 0 0 0 0 0 0 0 0 0 0 0 0 0 0 0 0 0 0 0 0 0 0 0 0 0 0 0 0 0 0 0 0 0 0
0 0 0 0 0 0 0 0 0 0 0 0 0 0 0 0 0 0 0 0 0 0 0 0 0 0 0 0 0 0 0 0 0 0 0 0 0 0 0 0 0 0 0
0 0 0 0 0 0 0 0 0 0 0 0 0 0 0 0 0 0 0 0 0 0 0 0 0 0 0 0 0 0 0 0 0 0 0 0 0 0 0 0 0 0 0
2 0 0 0 0 0 0 0 0 0 0 0 0 0 0 0 0 0 0 0 0 0 0 0 0 0 0 0 0 0 0 0 0 0 0 0 0 0 0 0 0 0 0
2 0 0 0 0 0 0 0 0 0 0 0 0 0 0 0 0 0 0 0 0 0 0 0 0 0 0 0 0 0 0 0 0 0 0 0 0 0 0 0 0 0 0
0 0 0 0 0 0 0 0 0 0 0 0 0 0 0 0 0 0 0 0 0 0 0 0 0 0 0 0 0 0 0 0 0 0 0 0 0 0 0 0 0 0 0

GFSGL_con_sbcape_006.txt.gz
CAPE
0 0 0 0 0 0 0 0 0 0 0 0 0 0 0 0 0 16 18 27 63 33 7 56 19 13 25 13 8 13 5 37 26 45 47 33 42 30 15 4 0 0 0
0 0 0 0 0 0 0 0 0 0 0 0 0 0 0 0 1 8 16 53 51 43 15 30 13 7 18 6 8 13 9 18 11 22 27 35 44 1 0 0 0 0 0
0 0 0 0 0 0 0 0 0 0 0 0 0 0 0 0 0 0 0 1 19 14 32 10 7 6 7 10 16 17 5 14 17 29 6 1 0 1 1 0 0 0 0
0 0 0 0 0 0 0 0 0 0 0 0 0 0 0 0 0 0 0 2 3 6 3 0 5 8 5 2 4 3 2 4 11 24 3 0 0 0 0 1 1 0 0
0 0 0 0 0 0 0 0 0 0 0 0 0 0 0 0 0 1 0 0 2 3 3 0 0 1 0 0 2 3 6 10 23 17 1 0 0 2 7 0 0 0 0
0 0 0 0 0 0 0 0 0 0 0 0 0 0 0 0 0 0 0 0 6 23 1 1 0 0 0 0 0 1 8 16 11 33 11 17 0 0 0 0 0 0 0
0 0 0 0 0 0 0 0 0 0 0 0 0 0 0 1 0 0 0 3 1 5 2 2 3 0 0 0 0 0 6 9 3 2 38 0 0 0 0 0 0 0 0
0 0 0 0 0 0 0 0 0 0 0 0 0 0 0 0 0 2 7 1 2 4 6 5 3 0 1 9 29 14 6 1 0 0 0 0 0 0 0 0 0 0 0
0 0 0 0 0 0 0 0 0 0 0 0 0 0 0 1 1 0 3 2 5 4 2 0 1 2 0 0 2 0 0 0 0 0 0 0 0 0 0 0 0 7 1
0 0 0 0 0 0 0 0 0 0 0 0 0 0 0 0 1 0 0 2 0 2 0 0 0 0 0 0 0 0 0 0 0 0 0 0 0 0 0 0 0 0 0
0 0 0 0 0 0 0 0 0 0 0 0 0 0 0 0 0 2 0 0 0 0 0 0 0 0 0 0 0 0 0 0 0 0 0 0 0 0 0 0 0 0 0
0 0 0 0 0 0 0 0 0 0 0 0 0 0 0 0 0 0 0 0 0 0 0 0 0 0 0 0 0 0 0 0 0 0 0 0 0 0 0 0 0 0 0
0 0 0 0 0 0 0 0 0 0 0 0 0 0 0 0 0 0 0 0 0 0 0 0 0 0 0 0 0 0 0 0 0 0 0 0 0 0 0 0 0 0 0
0 0 0 0 0 0 0 0 0 0 0 0 0 0 0 0 0 0 0 0 0 0 0 0 0 0 0 0 0 0 0 0 0 0 0 0 0 0 0 0 0 0 0
0 0 0 0 0 0 0 0 0 0 0 0 0 0 0 0 0 0 0 0 0 0 0 0 0 0 0 0 0 0 0 0 0 0 0 0 0 0 0 0 0 0 0
0 0 0 0 0 0 0 0 0 0 0 0 0 0 0 0 0 0 0 0 0 0 0 0 0 0 0 0 0 0 0 0 0 0 0 0 0 0 0 0 0 0 0
0 0 0 0 0 0 0 0 0 0 0 0 0 0 0 0 0 0 0 0 0 0 0 0 0 0 0 0 0 0 0 0 0 0 0 0 0 0 0 0 0 0 0
0 0 0 0 0 0 0 0 0 0 0 0 0 0 0 0 0 0 0 0 0 0 0 0 0 0 0 0 0 0 0 0 0 0 0 0 0 0 0 0 0 0 0
0 0 0 0 0 0 0 0 0 0 0 0 0 0 0 0 0 0 0 0 0 0 0 0 0 0 0 0 0 0 0 0 0 0 0 0 0 0 0 0 0 0 0
0 0 0 0 0 0 0 0 0 0 0 0 0 0 0 0 0 0 0 0 0 0 0 0 0 0 0 0 0 0 0 0 0 0 0 0 0 0 0 0 0 0 0
0 0 0 0 0 0 0 0 0 0 0 0 0 0 0 0 0 0 0 0 0 0 0 0 0 0 0 0 0 0 0 0 0 0 0 0 0 0 0 0 0 0 0
0 0 0 0 0 0 0 0 0 0 0 0 0 0 0 0 0 0 0 0 0 0 0 0 0 0 0 0 0 0 0 0 0 0 0 0 0 0 0 0 0 0 0
0 0 0 0 0 0 0 0 0 0 0 0 0 0 0 0 0 0 0 0 0 0 0 0 0 0 0 0 0 0 0 0 0 0 0 0 0 0 0 0 0 0 0
0 0 0 0 0 0 0 0 0 0 0 0 0 0 0 0 0 0 0 0 0 0 0 0 0 0 0 0 0 0 0 0 0 0 0 0 0 0 0 0 0 0 0
0 0 0 0 0 0 0 0 0 0 0 0 0 0 0 0 0 0 0 0 0 0 0 0 0 0 0 0 0 0 0 0 0 0 0 0 0 0 0 0 0 0 0
0 0 0 0 0 0 0 0 0 0 0 0 0 0 0 0 0 0 0 0 0 0 0 0 0 0 0 0 0 0 0 0 0 0 0 0 0 0 0 0 0 0 0

GFSGL_con_sbcape_009.txt.gz
CAPE
8 130 162 82 12 47 31 8 3 37 54 64 100 165 281 559 471 270 190 192 280 431 402 217 210 510 504 407 545 302 150 49 43 50 54 77 57 69 50 29 19 2 0
40 22 150 193 49 49 12 0 1 6 25 47 139 164 213 407 121 58 56 67 147 185 68 95 87 79 153 513 258 418 272 46 20 32 26 33 33 19 10 12 14 10 2
0 21 352 272 181 105 6 0 2 1 31 70 196 263 320 327 333 285 55 93 134 163 127 62 80 59 250 479 232 191 90 51 29 45 64 14 8 3 10 2 1 0 0
0 20 323 227 113 16 0 0 2 32 81 238 344 281 332 222 81 131 23 115 215 165 93 91 98 86 271 255 118 210 273 141 27 27 33 4 2 3 3 1 0 0 0
0 69 223 196 39 0 2 2 33 98 179 272 363 325 345 210 62 28 4 63 233 176 83 67 134 22 5 49 152 60 68 61 18 9 8 3 3 5 9 22 20 0 0
1 106 25 52 0 38 30 57 83 144 244 377 345 340 361 109 0 0 0 11 206 228 204 8 4 0 0 0 0 2 28 46 8 9 12 3 28 144 72 28 1 0 0
0 49 17 26 6 27 28 77 105 187 292 372 372 354 473 37 1 0 0 11 120 37 195 26 13 13 58 23 0 0 0 6 19 193 201 123 147 138 70 80 12 22 47
0 43 2 7 0 17 44 110 118 172 302 263 290 369 341 24 0 1 0 13 25 26 148 92 81 133 29 92 128 121 100 61 70 162 335 291 276 222 116 44 36 118 63
0 22 0 25 2 3 88 130 10 70 86 25 71 255 309 2 0 1 8 7 21 75 201 96 30 76 0 25 146 117 104 14 0 0 0 0 0 0 2 0 3 78 104
0 0 0 24 23 79 230 35 0 26 8 0 58 261 71 0 1 0 64 40 22 23 73 39 2 4 0 2 205 150 110 0 0 0 2 1 0 0 0 70 80 182 264
0 0 0 0 131 174 273 8 0 0 0 0 0 4 64 22 0 1 2 17 61 114 33 123 39 0 0 0 0 0 71 0 0 48 19 6 2 0 0 32 132 205 133
0 0 0 0 31 32 176 22 0 0 0 0 0 0 1 8 0 1 0 1 12 64 54 45 38 0 0 0 0 0 0 0 0 0 0 5 1 0 0 0 0 0 1
0 0 0 0 0 18 69 62 0 0 0 0 0 0 0 0 4 0 0 0 0 70 40 7 0 0 0 0 0 0 0 0 0 1 0 0 0 0 0 0 0 0 0
0 0 0 0 0 0 6 30 0 0 0 0 0 0 0 0 2 8 0 0 0 0 0 0 0 0 0 0 0 0 0 0 0 0 1 0 0 0 0 0 0 0 0
0 0 0 0 0 8 19 7 2 0 0 0 0 0 0 0 0 0 0 0 0 0 0 0 0 0 0 0 0 0 0 0 0 0 0 0 0 0 0 0 0 0 0
0 0 0 0 0 0 15 0 0 0 0 0 0 0 0 0 0 0 0 0 0 0 0 0 0 0 0 0 0 0 0 0 0 0 0 0 0 0 0 0 0 0 0
0 0 0 0 0 0 0 27 16 0 0 0 0 0 0 0 0 0 0 0 0 0 0 0 0 0 0 0 0 0 0 0 0 0 0 0 0 0 0 0 0 0 0
0 0 0 0 0 0 0 0 0 16 31 25 0 0 0 0 0 0 0 0 0 0 0 0 0 0 0 0 0 0 0 0 0 0 0 0 0 0 0 0 0 0 0
0 0 0 0 0 0 0 0 0 0 2 42 24 0 0 0 0 0 0 0 0 0 0 0 0 0 0 0 0 0 0 0 0 0 0 0 0 0 0 0 0 0 0
0 0 0 0 0 0 0 0 0 0 0 0 2 0 0 0 0 0 0 0 0 0 0 0 0 0 0 0 0 0 0 0 0 0 0 0 0 0 0 0 0 0 0
0 0 0 0 0 0 0 0 0 0 0 0 0 0 0 0 0 0 0 0 0 0 0 0 0 0 0 0 0 0 0 0 0 0 0 0 0 0 0 0 0 0 0
0 0 0 0 0 0 0 0 0 0 0 0 0 0 0 0 0 0 0 0 0 0 0 0 0 0 0 0 0 0 0 0 0 0 0 0 0 0 0 0 0 0 0
0 0 0 0 0 0 0 0 0 0 0 0 0 0 0 0 0 0 0 0 0 0 0 0 0 0 0 0 0 0 0 0 0 0 0 0 0 0 0 0 0 0 0
0 0 0 0 0 0 0 0 0 0 0 0 0 0 0 0 0 0 0 0 0 0 0 0 0 0 0 0 0 0 0 0 0 0 0 0 0 0 0 0 0 0 0
0 0 0 0 0 0 0 0 0 0 0 0 0 0 0 0 0 0 0 0 0 0 0 0 0 0 0 0 0 0 0 0 0 0 0 0 0 0 0 0 0 0 0
4 0 0 0 0 0 0 0 0 0 0 0 0 0 0 0 0 0 0 0 0 0 0 0 0 0 0 0 0 0 0 0 0 0 0 0 0 0 0 0 0 0 0

GFSGL_con_sbcape_015.txt.gz
CAPE
414 343 1017 793 524 378 378 213 683 257 474 134 126 452 536 768 689 857 760 634 684 852 658 496 542 547 850 1112 761 701 544 531 13 10 15 14 11 6 5 2 2 3 0
260 377 797 495 554 560 394 136 307 467 191 74 120 82 225 533 694 489 331 354 531 531 588 463 264 439 596 983 823 562 463 129 3 5 12 15 23 28 4 32 47 24 7
250 291 520 349 612 631 361 572 40 77 45 64 89 65 416 412 503 436 251 203 454 316 96 73 282 201 582 591 331 214 107 26 5 4 11 39 32 10 27 35 23 26 56
171 217 788 815 577 680 625 372 27 19 17 62 99 432 238 360 303 237 579 483 294 158 65 64 87 179 361 330 174 99 24 9 18 43 62 56 50 13 2 2 5 18 17
133 217 935 662 544 178 393 89 29 23 44 253 441 130 345 407 173 350 501 541 554 467 303 115 105 37 223 342 99 70 33 8 42 34 42 28 6 7 4 3 8 13 23
106 296 460 297 167 216 160 182 116 208 282 534 458 435 384 18 0 0 0 617 508 349 187 18 95 3 0 0 42 30 67 72 28 15 18 18 12 2 0 0 0 0 0
164 403 310 175 132 163 188 209 328 860 925 704 798 477 588 0 0 0 0 550 740 449 339 182 148 116 97 2 0 0 0 0 0 1 2 1 0 0 0 4 35 35 38
197 365 252 163 131 178 266 297 430 1171 809 792 663 626 691 0 0 1 0 580 746 369 290 205 255 301 65 72 82 29 7 0 0 0 0 1 0 0 40 155 139 350 239
233 341 220 294 398 388 704 436 636 1073 1061 1008 912 617 375 0 1 1 0 610 552 372 220 364 310 190 1 0 39 6 1 0 0 0 5 8 8 0 94 144 35 295 139
216 319 305 419 484 497 636 809 858 774 560 850 721 659 225 60 1 0 0 515 645 717 427 16 7 7 0 18 130 4 3 1 0 4 12 5 4 33 3 303 402 283 401
139 341 355 446 489 683 515 616 683 590 577 914 762 720 399 235 2 1 0 194 617 421 133 164 11 0 0 0 46 171 48 43 13 75 92 113 241 334 60 258 421 102 299
23 312 509 513 452 711 636 335 196 449 763 1086 850 493 261 176 0 0 0 17 16 172 103 90 0 0 0 0 33 13 4 59 176 190 314 398 246 0 22 401 752 905 534
1 266 504 599 548 728 749 250 133 300 524 964 656 899 362 150 19 0 0 0 0 814 312 9 0 0 0 0 0 0 0 162 123 111 65 89 84 111 657 794 501 122 106
0 150 312 527 464 595 411 226 11 35 137 401 422 578 576 290 59 17 10 7 0 0 0 0 0 0 0 0 0 0 5 31 46 266 436 314 364 428 416 371 98 15 0
10 7 136 214 411 526 414 116 89 58 0 21 144 273 416 454 243 34 26 109 307 111 173 11 25 98 113 0 0 0 11 55 135 441 51 27 66 131 87 62 15 0 0
146 20 19 10 214 422 260 283 0 0 0 0 0 20 94 17 20 3 0 0 0 1 50 59 71 22 43 31 2 0 0 0 1 12 21 20 4 6 11 5 0 0 0
385 302 0 0 1 166 364 272 331 0 0 0 0 0 0 1 0 0 0 0 0 0 141 137 110 83 52 6 1 3 0 0 52 0 25 16 0 0 0 0 0 0 0
283 0 9 0 0 0 76 313 349 299 184 50 0 0 0 0 0 0 0 0 0 0 58 114 71 6 9 7 3 0 0 0 0 0 20 0 5 0 0 0 0 0 12
87 0 11 0 0 0 0 0 101 150 242 127 21 0 0 0 0 0 0 0 0 0 0 0 0 0 0 0 0 0 0 0 0 8 37 51 62 32 8 0 0 0 0
63 0 0 0 0 0 0 0 0 0 0 2 0 0 0 0 0 0 0 0 0 0 0 0 0 0 0 0 0 0 0 0 0 7 5 19 34 47 21 0 0 0 0
10 1 0 0 0 0 0 0 0 0 0 0 0 0 0 0 0 0 0 0 0 0 0 0 0 0 0 0 0 0 0 0 0 0 0 0 16 2 31 6 0 0 0
145 97 24 0 0 0 0 0 0 0 0 0 0 0 0 0 0 0 0 0 0 0 0 0 0 0 0 0 0 0 0 0 0 0 0 0 0 1 0 1 0 0 0
325 288 253 110 5 0 0 0 0 0 0 0 0 0 0 23 0 0 7 57 70 0 0 0 0 0 0 0 0 0 0 0 0 0 0 0 0 0 0 0 0 1 0
457 383 650 396 113 13 61 138 0 0 0 0 0 0 1 27 16 0 0 29 149 189 123 5 0 0 0 7 0 0 0 0 0 0 0 0 0 0 0 0 0 0 0
439 796 876 988 440 280 292 200 138 243 19 1 7 4 0 17 8 14 13 11 69 235 242 213 135 3 0 0 0 0 0 0 0 0 0 0 0 0 0 0 0 0 0
345 441 936 893 918 526 507 644 569 577 370 290 189 142 143 47 16 193 237 143 89 88 282 271 221 72 0 0 0 0 0 0 0 0 0 0 0 0 0 0 0 0 0

GFSGL_con_sbcape_021.txt.gz
CAPE
405 173 174 217 102 1 1 12 0 0 17 11 37 185 122 59 49 36 50 89 140 165 53 68 137 105 114 223 112 63 6 0 0 1 0 2 2 6 10 10 4 2 2
382 254 257 176 33 1 0 9 0 0 0 12 12 299 137 189 82 69 72 98 98 29 40 57 25 93 129 154 100 0 0 0 0 1 2 4 6 7 3 5 3 3 4
380 293 323 238 78 20 3 25 0 0 23 15 13 55 67 117 154 35 35 83 54 1 3 20 3 79 103 130 9 3 2 2 1 1 1 6 5 3 3 3 1 0 2
223 184 387 180 126 27 5 15 14 3 14 19 98 108 222 33 71 214 155 43 8 2 0 34 47 111 48 6 5 3 3 2 6 3 2 10 8 5 1 4 9 5 12
308 385 384 168 122 8 8 6 14 20 6 21 63 52 2 0 0 40 101 31 4 9 22 7 3 11 0 9 12 5 2 4 6 3 2 4 4 4 2 3 1 9 3
283 431 573 405 242 82 35 70 1 24 31 19 62 0 0 0 1 0 0 39 22 20 6 1 0 0 1 0 0 0 0 0 4 6 2 3 2 0 1 2 3 4 10
308 461 711 368 79 103 40 8 19 41 112 41 8 0 0 0 1 0 0 15 22 11 29 16 2 0 0 0 0 0 0 0 1 0 0 0 0 0 0 0 1 0 1
324 391 248 75 9 21 39 16 84 7 11 24 33 0 0 0 0 1 5 2 0 0 0 1 2 0 0 2 0 1 0 0 0 0 0 0 0 0 0 0 0 0 0
168 74 41 20 10 147 215 38 12 40 45 2 0 0 0 0 1 1 49 0 0 0 0 1 1 0 0 0 0 1 1 0 0 0 0 0 0 0 0 0 0 0 0
146 53 37 24 127 91 180 77 22 64 75 103 21 0 0 0 0 1 23 1 0 0 0 0 0 0 0 0 0 1 1 1 0 0 0 0 0 0 0 0 0 0 0
127 89 68 170 291 176 133 51 117 204 159 74 4 0 0 0 0 2 6 0 0 0 0 0 0 0 0 0 0 0 1 0 0 0 0 0 0 0 0 0 0 0 0
51 208 281 294 560 331 151 123 69 85 59 19 0 0 0 0 0 1 0 0 0 0 0 0 1 1 0 0 0 0 0 0 0 0 0 0 0 0 0 0 0 0 0
56 309 304 163 170 146 149 52 79 30 48 17 0 1 0 0 0 1 0 0 0 0 0 0 0 0 0 2 0 0 0 0 0 0 0 0 0 0 0 0 0 0 0
271 187 211 261 145 169 88 76 109 101 167 112 21 0 0 0 0 0 0 0 0 0 0 0 0 0 0 0 0 0 0 0 0 0 0 0 0 0 0 0 0 0 0
288 185 148 299 250 132 0 0 0 34 356 269 55 3 0 0 0 0 0 0 0 0 0 0 0 0 0 0 0 0 0 0 0 0 0 0 0 0 0 0 0 0 0
370 272 229 310 373 146 0 0 0 0 0 178 92 6 0 0 0 0 0 0 0 0 0 0 0 0 0 0 0 0 0 0 0 0 0 0 0 0 0 18 0 0 0
234 245 162 171 262 109 0 0 0 0 0 0 1 102 2 0 0 0 0 0 0 0 0 0 0 0 0 0 0 0 0 0 0 0 0 0 0 0 1 37 0 0 0
1 60 11 37 30 112 33 0 0 0 0 0 0 0 0 0 0 0 0 0 0 0 0 0 0 0 0 0 0 0 0 0 0 0 0 0 0 9 0 0 0 0 0
0 0 0 0 0 0 35 12 2 0 0 0 0 0 0 0 0 0 0 0 0 0 0 0 0 0 0 0 0 0 0 0 0 0 0 0 0 0 0 0 0 0 0
0 0 0 0 0 0 0 38 2 1 0 0 0 0 0 0 0 0 0 0 0 0 0 0 0 0 0 0 0 0 0 0 0 0 0 0 0 0 0 0 0 0 0
0 0 0 0 0 0 0 0 0 1 0 0 0 0 0 0 0 0 0 0 0 0 0 0 0 0 0 0 0 0 0 0 0 0 0 0 0 0 0 0 0 0 0
0 0 0 0 0 0 0 0 0 0 7 0 0 0 0 0 0 0 0 0 0 0 0 0 0 0 0 0 0 0 0 0 0 0 0 0 0 0 0 0 0 0 0
0 0 0 0 0 0 0 0 0 0 0 0 0 0 0 0 0 0 0 0 0 0 0 0 0 0 0 0 0 0 0 0 0 0 0 0 0 0 0 0 0 0 0
93 0 0 0 0 0 0 0 0 0 0 0 0 0 0 0 0 0 0 0 0 0 0 0 0 0 0 0 0 0 0 0 0 0 0 0 0 0 0 0 0 0 0
45 156 169 0 0 0 0 0 0 0 0 0 0 0 0 0 0 0 0 0 0 0 0 0 0 0 0 0 0 0 0 0 0 0 0 0 0 0 0 0 0 0 0
0 29 202 208 14 0 0 0 0 0 0 0 0 0 0 0 0 0 0 0 0 0 0 0 0 0 0 0 0 0 0 0 0 0 0 0 0 0 0 0 0 0 0

GFSGL_con_sbcape_024.txt.gz
CAPE
14 7 34 22 0 0 0 0 0 0 0 0 0 3 1 1 0 0 24 64 82 53 26 19 17 22 4 47 17 6 0 0 0 2 2 1 0 3 6 3 2 0 0
4 1 13 1 0 0 0 0 0 0 0 0 0 63 15 4 3 11 41 70 9 29 9 9 4 65 33 5 0 0 0 0 0 0 2 2 3 1 2 3 4 3 1
38 31 62 11 0 0 0 0 0 0 0 13 1 6 1 18 10 6 4 43 0 0 0 3 2 45 87 3 2 1 0 1 1 1 3 3 7 3 2 3 1 1 5
124 142 59 2 0 0 0 0 0 0 9 9 16 31 15 0 24 120 92 11 0 0 2 5 2 53 34 6 5 1 1 1 1 2 3 6 8 6 0 1 2 2 5
97 201 90 9 1 0 0 0 12 13 9 22 28 3 0 0 0 3 11 0 3 5 7 4 25 19 1 1 2 3 1 2 2 3 4 3 5 3 1 4 2 1 1
148 225 124 74 2 7 0 0 3 6 6 20 13 0 0 0 1 1 0 5 11 7 0 1 1 0 0 0 0 0 1 1 3 4 3 2 3 3 3 2 4 4 5
252 438 289 61 14 16 11 0 1 25 11 20 0 0 0 0 1 2 1 0 0 1 2 2 2 1 0 0 1 0 0 0 0 0 1 2 1 1 1 5 5 2 6
256 549 150 0 0 5 3 0 2 2 7 1 0 0 0 0 1 2 0 0 0 0 1 1 1 2 0 1 0 1 0 0 0 1 0 0 0 0 0 0 0 0 0
207 240 53 0 0 6 8 0 0 0 0 0 0 0 0 0 1 2 0 0 1 3 5 3 1 0 0 3 1 1 1 0 0 0 0 0 0 0 0 0 0 0 1
154 30 3 0 0 19 11 0 0 0 0 0 0 0 0 0 1 2 0 0 0 1 1 0 0 0 0 3 0 0 1 1 0 0 0 0 0 0 0 0 0 0 0
30 14 0 0 2 0 0 0 1 0 7 3 0 0 0 0 1 1 0 0 0 1 1 1 0 0 0 0 0 0 0 0 0 0 0 0 0 0 0 0 0 0 0
1 0 0 0 12 0 0 0 6 0 0 0 0 0 0 0 1 2 0 0 0 0 0 0 0 1 0 0 0 0 0 0 0 0 0 0 0 0 0 0 0 0 0
0 0 0 44 0 0 0 0 0 0 0 0 0 0 1 0 0 1 0 0 0 0 0 0 0 1 0 0 0 0 0 0 0 0 0 0 0 0 0 0 0 0 0
1 0 0 10 0 0 0 0 2 1 0 0 0 1 0 0 0 0 1 0 0 0 0 1 0 0 0 0 0 0 0 0 0 0 0 0 0 0 0 0 0 0 0
18 2 0 0 0 0 0 0 3 1 1 1 0 0 0 0 0 0 0 0 0 0 0 0 0 0 0 0 1 0 0 0 0 0 0 0 0 0 0 0 0 0 0
5 49 20 0 0 0 0 0 0 0 0 10 5 0 0 0 0 0 0 0 0 0 0 0 0 0 0 0 0 0 0 0 0 0 0 0 0 0 0 0 0 0 0
7 16 7 15 0 0 0 0 0 0 0 0 0 0 0 0 0 0 0 0 0 0 0 0 0 0 0 0 0 0 0 0 0 0 0 0 0 0 0 0 0 0 0
0 0 28 69 41 0 0 0 0 0 0 0 0 0 0 0 0 0 0 0 0 0 0 0 0 0 0 0 0 0 0 0 0 0 0 0 0 0 0 0 0 0 0
18 0 0 6 13 1 0 0 0 0 0 0 0 0 0 0 0 0 0 0 0 0 0 0 0 0 0 0 0 0 0 0 0 0 0 0 0 0 0 0 0 0 0
0 0 0 0 0 0 0 0 0 0 0 0 0 0 0 0 0 0 0 0 0 0 0 0 0 0 0 0 0 0 0 0 0 0 0 0 0 0 0 0 0 0 0
0 0 0 0 0 0 0 0 0 0 0 0 0 0 0 0 0 0 0 0 0 0 0 0 0 0 0 0 0 0 0 0 0 0 0 0 0 0 0 0 0 0 0
0 0 0 0 0 0 0 0 0 0 0 0 0 0 0 0 0 0 0 0 0 0 0 0 0 0 0 0 0 0 0 0 0 0 0 0 0 0 0 0 0 0 0
0 0 0 0 0 0 0 0 0 0 0 0 0 0 0 0 0 0 0 0 0 0 0 0 0 0 0 0 0 0 0 0 0 0 0 0 0 0 0 0 0 0 0
0 0 0 0 0 0 0 0 0 0 0 0 0 0 0 0 0 0 0 0 0 0 0 0 0 0 0 0 0 0 0 0 0 0 0 0 0 0 0 0 0 0 0
0 0 0 0 0 0 0 0 0 0 0 0 0 0 0 0 0 0 0 0 0 0 0 0 0 0 0 0 0 0 0 0 0 0 0 0 0 0 0 0 0 0 0
0 0 0 0 0 0 0 0 0 0 0 0 0 0 0 0 0 0 0 0 0 0 0 0 0 0 0 0 0 0 0 0 0 0 0 0 0 0 0 0 0 0 0

GFSGL_con_sbcape_030.txt.gz
CAPE
0 0 0 0 0 0 0 0 0 0 0 0 0 0 0 0 0 0 0 2 16 13 17 15 17 0 0 0 0 1 0 0 1 9 16 99 7 4 2 2 2 2 0
0 0 0 0 0 0 0 0 0 0 0 0 0 0 0 0 0 0 0 12 12 1 12 9 2 0 0 9 15 1 0 0 0 4 1 3 2 4 2 2 2 2 0
0 0 0 0 0 0 0 0 0 0 0 0 0 0 0 0 0 1 0 2 18 2 1 7 0 0 25 10 4 4 1 0 1 2 3 2 1 2 2 2 2 2 2
0 0 0 0 0 0 0 0 0 0 0 0 0 13 0 0 0 0 44 9 0 0 0 0 0 32 6 16 10 5 12 6 6 5 2 2 2 2 1 0 2 1 1
0 0 0 0 0 0 0 0 0 0 0 12 27 0 0 0 0 2 11 4 0 1 5 1 2 20 0 5 5 7 3 5 5 2 2 2 3 2 2 2 2 1 2
0 0 0 0 0 0 0 0 0 0 18 34 5 0 0 0 1 1 0 1 1 7 19 10 2 0 0 0 0 0 0 3 1 3 2 2 4 3 2 1 0 0 1
3 12 23 0 0 0 0 0 0 2 21 12 0 0 0 0 1 0 0 0 3 3 1 1 1 0 0 0 0 0 0 0 0 4 2 2 3 2 1 2 1 0 1
42 92 11 0 0 0 0 0 0 8 18 0 0 0 0 1 1 0 0 3 6 2 1 2 1 1 0 0 0 0 0 0 0 3 2 2 2 1 0 0 1 4 2
128 32 6 0 0 0 0 0 0 1 0 0 0 0 0 0 1 1 0 3 2 2 3 2 1 1 0 0 1 0 0 0 0 0 0 0 0 0 0 0 0 0 3
92 13 0 0 0 0 0 0 0 0 0 0 0 0 0 1 1 1 0 3 2 2 1 0 0 0 0 0 1 1 1 1 1 0 0 1 0 0 0 0 0 0 0
57 8 0 0 0 0 0 0 0 0 0 0 0 0 0 1 0 2 0 0 2 3 1 1 0 2 0 0 0 0 0 1 0 2 1 0 0 0 0 0 0 0 0
38 0 0 0 0 0 0 0 0 0 0 0 0 0 0 1 1 1 0 0 0 2 1 0 0 0 0 0 0 0 0 0 1 1 1 0 0 0 0 0 0 0 0
0 0 0 0 0 0 0 0 0 1 1 1 2 0 1 3 1 1 2 0 0 1 0 1 1 2 2 1 1 0 0 1 0 2 1 0 0 0 0 0 0 0 0
0 0 0 0 0 0 0 0 0 0 0 0 0 1 2 3 3 1 0 0 1 0 1 0 1 0 0 0 0 0 0 0 0 0 0 0 0 0 0 0 0 0 0
0 0 0 0 0 0 0 0 0 0 0 0 0 0 0 2 1 0 0 1 1 0 0 1 2 2 2 4 3 1 0 0 0 0 0 0 0 0 0 0 0 1 0
0 0 0 0 0 0 0 0 0 0 0 0 0 0 0 0 0 2 1 2 2 0 1 1 3 4 2 4 1 4 2 0 0 0 0 0 0 0 0 0 0 0 0
0 0 0 0 0 0 0 0 0 0 0 0 1 0 0 0 2 2 2 2 1 0 1 2 1 3 0 0 4 1 1 0 0 0 0 0 0 0 0 0 0 0 0
0 0 0 0 0 0 0 0 0 0 0 0 0 1 2 2 2 1 1 0 0 0 1 1 1 1 1 1 0 0 1 1 0 0 0 0 0 0 0 0 0 0 0
0 0 0 0 0 0 0 0 0 0 0 0 1 1 1 1 1 1 1 0 0 1 2 1 0 0 0 1 0 0 2 0 0 0 0 0 0 0 0 0 0 0 0
0 0 0 0 0 0 0 0 0 0 0 0 0 0 1 1 2 1 0 0 0 0 0 0 0 0 1 3 1 1 3 0 0 0 0 0 0 0 0 0 0 0 0
0 0 0 0 0 0 0 0 0 0 0 0 0 0 0 0 0 1 0 0 0 0 0 0 0 0 0 0 0 0 0 0 0 0 0 0 0 0 0 0 0 0 0
0 0 0 0 0 0 0 0 0 0 0 0 0 0 2 0 0 0 0 0 0 0 0 0 0 0 0 0 0 0 0 0 0 0 0 0 0 0 0 0 0 0 0
0 0 0 0 0 0 0 0 0 0 0 0 0 0 0 0 0 0 0 0 0 0 0 0 0 0 0 0 0 0 0 0 0 0 0 0 0 0 0 0 0 0 0
0 0 0 0 0 0 0 0 0 0 0 0 0 0 0 0 0 0 0 0 0 0 0 0 0 0 0 0 0 0 0 0 0 0 0 0 0 0 0 0 0 0 0
2 2 2 1 0 0 0 0 0 0 0 0 0 0 0 0 0 0 0 0 0 0 0 0 0 0 0 0 0 0 0 0 0 0 0 0 0 0 0 0 0 0 0
2 4 6 4 3 3 3 2 2 1 0 1 1 0 0 0 0 0 0 0 0 0 0 0 0 0 0 0 0 0 0 0 0 0 0 0 0 0 0 0 0 0 0

GFSGL_con_sbcape_033.txt.gz
CAPE
649 560 551 512 499 521 582 596 604 565 481 327 216 299 504 702 791 806 802 697 182 75 34 284 470 525 486 480 419 67 477 571 335 266 491 255 75 138 149 30 17 4 1
473 489 475 450 467 520 477 459 381 341 116 152 220 397 507 516 540 487 429 150 37 40 26 89 369 419 735 729 361 127 258 524 348 290 153 37 8 9 6 4 4 4 2
350 371 379 366 441 473 362 271 202 138 197 201 300 275 210 480 438 512 60 6 10 21 24 55 306 534 722 591 589 481 352 314 429 115 11 8 7 3 4 3 3 5 3
251 235 276 291 339 355 285 163 178 180 245 223 199 319 428 327 79 153 140 76 18 34 7 102 227 454 551 524 291 374 465 393 164 64 5 4 5 5 4 2 3 4 3
57 133 209 212 271 251 180 96 83 164 83 106 372 402 217 2 3 11 97 117 43 1 71 6 101 286 95 135 229 201 425 136 44 14 5 5 5 6 2 5 3 2 5
75 123 149 154 215 285 234 82 27 67 467 255 354 193 2 0 0 0 32 23 7 19 70 118 46 0 0 0 1 37 189 96 20 9 6 4 6 6 7 3 2 3 2
149 167 178 188 193 151 25 41 88 311 376 82 267 29 5 36 0 0 0 55 91 28 30 3 10 3 3 2 0 0 0 0 2 8 10 6 5 9 6 6 2 15 6
218 226 205 237 153 69 36 62 265 349 306 40 131 15 67 0 0 0 0 29 44 16 3 2 2 4 3 4 15 7 4 11 6 5 15 16 14 17 2 1 5 3 4
423 449 332 244 125 73 75 290 546 543 45 73 42 9 99 3 0 1 1 15 16 7 4 5 1 1 0 1 8 4 4 1 0 0 1 0 0 0 1 0 2 3 4
525 480 308 122 100 55 131 224 450 606 413 92 11 1 1 2 1 0 7 12 6 4 1 1 0 0 0 0 6 12 11 9 3 1 0 1 0 0 0 0 1 17 14
542 504 219 132 111 161 166 218 396 412 240 116 21 22 2 3 1 1 0 11 5 8 5 4 1 2 0 0 0 5 4 9 1 4 4 4 2 1 1 24 27 17 2
593 433 208 169 12 113 180 255 377 489 397 119 60 3 3 3 1 1 0 0 0 14 6 3 0 2 0 0 0 0 0 2 13 9 16 12 13 7 10 5 4 3 15
651 370 321 138 130 273 368 489 481 445 308 46 39 4 3 4 2 1 2 0 0 9 5 1 1 2 2 1 1 0 0 10 10 9 8 8 8 20 11 1 0 0 1
650 359 376 288 266 335 323 443 507 439 225 18 4 1 5 5 3 1 0 0 1 0 0 0 0 0 0 0 0 0 32 29 19 7 15 12 15 16 11 4 0 0 0
626 219 485 342 386 457 355 226 500 420 222 151 12 4 3 9 3 0 2 4 3 0 1 5 5 6 5 7 8 12 11 31 50 25 29 13 17 14 15 14 8 1 0
620 413 505 446 462 367 184 18 0 0 0 0 0 1 1 1 0 1 0 0 1 0 5 9 8 4 5 12 13 18 25 6 33 21 20 11 6 8 6 4 0 0 0
582 615 457 401 520 446 311 446 284 0 1 0 1 0 0 0 2 2 2 2 0 0 0 1 2 2 5 9 9 5 15 19 8 5 5 4 3 2 0 0 0 2 4
591 168 576 548 579 551 346 402 449 345 60 147 0 0 0 2 2 2 1 1 1 2 16 18 9 12 7 5 8 8 18 8 3 6 7 5 1 0 0 0 0 0 1
382 261 443 574 574 443 372 102 220 84 46 119 1 0 0 1 0 1 1 3 3 1 4 3 2 12 21 17 11 7 5 5 1 2 4 5 4 1 0 0 0 0 0
277 122 266 545 481 503 398 88 45 6 27 55 488 120 1 1 2 2 0 8 9 6 6 11 10 8 8 8 7 6 3 6 6 5 1 0 0 0 0 0 1 1 0
176 181 172 402 489 471 481 329 98 9 13 139 375 94 0 46 30 0 1 28 47 29 4 2 1 1 1 2 5 3 5 4 1 1 0 0 0 0 0 1 1 3 1
81 154 208 332 427 452 515 484 365 225 189 116 46 0 0 13 263 121 48 58 63 58 63 70 61 44 34 34 32 23 30 54 44 21 38 30 22 10 8 5 0 0 27
83 81 149 278 339 125 300 489 486 450 437 359 142 0 0 1 163 307 294 212 188 136 107 55 58 58 73 84 82 91 67 27 32 34 44 42 31 29 9 6 3 32 84
4 31 39 68 125 196 235 308 333 92 336 411 309 90 0 0 2 70 226 302 277 239 202 200 184 145 96 43 14 12 8 5 6 0 5 2 1 0 0 0 0 18 58
1 5 1 0 0 0 0 0 0 0 0 10 47 73 99 27 4 0 4 30 115 164 173 187 196 179 197 202 162 72 0 0 0 0 0 0 0 0 0 0 0 13 18
2 4 7 8 7 4 3 3 4 4 5 4 3 1 0 0 0 1 0 0 0 0 0 4 15 17 21 35 53 22 0 0 0 0 0 14 77 63 59 122 42 67 84

GFSGL_con_sbcape_036.txt.gz
CAPE
1976 1954 1967 1856 1738 1501 1377 1417 1558 1552 1442 1184 914 615 505 663 902 1002 1059 846 674 526 81 69 520 748 1094 778 667 302 1146 1081 1180 848 1035 873 892 909 719 605 322 405 1
1838 1800 1632 1337 1241 1332 1379 1389 1332 1158 746 384 280 340 543 625 752 817 685 492 117 41 72 58 329 584 847 952 1078 176 766 1131 1106 703 530 237 169 420 183 52 10 35 5
1395 1285 1280 1293 1336 1340 1247 1133 844 559 340 272 441 542 557 515 647 626 557 497 10 14 32 71 280 608 878 1048 830 552 938 1019 1449 481 92 11 12 7 5 6 4 5 4
961 1022 1081 1082 1046 972 867 756 549 342 420 515 455 360 432 431 102 288 511 407 151 15 83 137 270 572 836 991 876 906 1140 895 529 257 12 11 9 7 4 2 3 3 9
472 393 455 574 632 558 476 425 361 411 392 289 382 518 484 111 39 465 302 108 57 144 29 69 376 302 79 526 786 950 1101 507 419 96 11 8 5 5 4 7 3 4 3
65 230 414 530 520 446 434 468 367 327 302 265 427 443 387 98 1 1 1 273 14 43 160 128 311 126 1 0 16 141 624 497 485 29 7 7 9 5 5 8 5 1 1
163 255 336 478 472 437 280 262 267 430 552 518 513 401 548 356 0 1 0 172 18 56 77 140 38 53 89 122 1 0 0 1 187 310 10 9 8 6 6 6 4 6 13
174 258 341 355 353 246 181 203 362 557 595 794 450 540 592 0 0 1 0 210 91 35 31 31 53 77 92 22 74 81 86 18 42 112 66 18 7 10 7 13 27 12 6
268 309 296 203 219 120 138 333 408 562 661 591 495 525 607 110 0 1 0 137 15 6 5 4 15 48 0 1 97 149 151 1 0 1 3 1 0 0 2 1 4 4 4
314 286 242 213 182 217 236 378 476 315 275 271 484 592 38 43 1 0 5 7 7 3 3 3 0 3 0 0 98 40 19 8 2 0 0 0 0 0 0 0 1 7 7
351 347 328 152 103 192 321 495 541 459 442 487 487 466 10 55 2 1 0 19 6 8 4 4 1 0 0 0 25 23 17 17 3 8 5 3 1 5 6 0 0 1 3
460 427 351 176 129 222 403 464 515 721 747 668 624 42 2 8 0 1 0 0 2 46 9 3 0 0 0 0 1 0 0 3 14 12 9 7 6 11 3 75 160 149 106
507 361 357 188 243 433 565 626 860 976 1272 664 676 212 8 6 1 2 0 0 0 22 4 0 1 2 2 0 0 0 1 7 11 14 18 18 5 43 79 88 87 81 8
702 469 424 399 484 491 519 866 1029 1028 720 440 333 157 13 6 4 5 0 2 0 0 0 0 0 1 0 0 0 0 24 29 26 22 21 46 70 77 74 48 14 0 0
759 562 490 500 609 625 722 505 956 905 257 371 469 254 5 14 5 3 4 26 14 1 3 5 3 3 2 2 1 22 70 48 57 66 64 60 63 46 20 12 0 0 0
745 583 268 372 568 479 551 321 0 0 2 0 0 37 43 1 0 0 0 0 0 0 11 19 11 8 7 6 23 15 57 24 73 69 44 57 43 31 27 12 6 0 0
520 683 490 303 250 345 550 733 527 0 1 0 2 0 0 0 2 2 0 0 0 0 18 18 18 16 19 23 53 79 77 70 87 92 67 79 69 39 9 14 9 2 0
714 433 418 425 349 192 551 673 422 710 558 83 0 0 0 2 2 2 1 0 1 10 10 11 17 33 49 68 64 75 73 79 44 63 44 61 52 39 21 21 5 4 0
663 528 323 400 524 174 98 373 421 433 655 601 0 0 0 0 1 1 0 18 24 27 41 47 41 34 53 66 70 71 43 65 60 51 59 61 38 38 19 2 1 0 0
401 91 289 472 686 600 130 175 385 365 443 790 584 42 0 0 2 2 0 6 1 13 13 11 11 8 23 30 30 81 60 49 76 127 130 89 60 22 6 0 0 0 0
234 488 292 563 509 465 396 115 26 61 306 472 656 108 0 288 84 7 85 118 94 82 63 96 108 53 40 66 122 110 32 23 93 75 160 156 170 143 64 1 0 0 2
137 350 281 310 398 453 545 537 307 96 51 108 450 4 0 27 429 332 264 333 384 294 213 178 121 94 101 152 221 222 131 83 144 178 104 91 57 17 0 1 8 33 36
149 177 169 208 352 281 694 602 598 422 253 237 251 69 30 423 687 786 685 549 448 369 370 422 396 355 268 210 152 169 227 285 333 333 294 247 187 167 157 145 103 62 26
345 335 421 411 459 504 626 727 708 312 631 409 406 383 367 404 542 585 736 824 865 806 730 578 413 287 282 340 369 354 312 245 94 31 75 108 103 81 83 58 41 16 3
3 278 300 336 398 364 448 553 654 711 754 865 860 721 743 553 422 359 317 332 442 594 647 658 672 655 668 586 42 0 0 0 23 3 170 253 228 210 114 65 51 40 61
2 3 7 4 3 3 3 2 3 2 2 1 0 0 0 0 1 2 1 1 10 76 119 182 132 0 0 0 0 0 0 1 0 0 0 75 133 154 153 137 141 156 202

GFSGL_con_sbcape_042.txt.gz
CAPE
2445 2673 3009 3126 3286 3129 2749 2251 2351 2345 2070 2012 1677 1225 869 1089 1341 1248 988 972 757 683 499 464 195 192 545 482 340 211 222 94 84 365 243 232 129 150 311 30 127 22 0
2716 2957 3089 2659 2603 2278 1908 1703 1946 1748 1646 1465 1378 1084 1102 855 960 1010 775 729 682 550 378 1 0 25 253 330 420 202 226 154 211 205 235 255 239 420 455 458 255 2 0
2127 2031 2084 1677 1678 1792 1643 1734 1686 1532 1663 1030 773 633 603 781 635 985 997 771 669 340 61 0 9 38 141 283 351 254 249 233 227 220 80 2 20 6 1 1 1 1 1
1614 1746 1705 1956 2013 1866 1695 1803 1447 1143 924 836 799 689 616 504 679 767 840 693 577 87 14 10 61 117 430 301 340 244 314 182 209 12 0 2 1 2 1 0 1 1 1
1557 1797 1893 1878 1791 1617 1486 1273 928 957 368 575 618 588 431 174 65 776 826 705 221 4 1 12 101 77 1 149 447 504 363 222 12 0 1 1 1 1 1 2 1 1 1
1552 1636 1628 1425 1295 1258 1175 294 238 657 644 437 523 492 16 0 0 1 185 118 65 36 48 19 82 0 0 0 0 264 263 237 0 1 2 1 1 1 1 1 1 0 1
1084 867 678 613 437 465 578 449 519 784 969 688 700 675 347 0 0 0 0 203 16 35 93 114 327 69 118 16 0 0 12 130 0 0 0 0 1 1 0 1 1 0 0
490 387 461 406 533 423 373 448 493 1007 1250 993 977 827 129 0 0 1 0 101 19 12 56 97 289 309 156 349 436 316 192 0 0 0 0 0 0 0 0 0 0 1 0
339 603 471 309 350 327 536 529 795 1076 900 773 854 801 97 0 1 0 73 94 2 3 13 46 170 24 0 0 387 54 0 0 0 0 0 0 0 0 0 0 1 0 1
410 345 363 258 228 380 613 618 827 853 865 682 750 575 0 0 1 0 26 4 6 3 0 1 0 3 0 0 78 7 0 0 0 0 0 0 0 0 0 0 0 0 0
433 257 357 180 387 609 665 786 1098 779 761 615 665 196 7 5 0 0 0 0 2 4 2 1 0 1 0 0 14 7 1 0 0 0 1 1 0 0 0 0 0 0 0
375 219 430 405 37 594 667 641 905 971 916 696 316 14 8 0 0 2 0 0 0 2 2 0 0 0 0 0 0 0 0 0 1 1 1 1 1 0 0 0 0 0 0
515 487 408 559 149 752 481 534 1219 906 825 820 621 20 8 4 0 0 0 0 0 5 0 1 2 0 0 0 0 0 0 0 1 1 1 1 1 0 0 0 0 0 0
582 471 601 511 720 618 505 1093 785 743 900 686 556 36 3 7 6 0 0 0 0 0 1 1 0 0 0 0 0 0 0 1 0 1 1 1 0 0 0 0 0 0 0
488 397 420 521 789 255 5 3 34 1 51 786 486 7 3 7 4 3 6 2 2 0 1 0 0 0 1 5 9 4 3 4 2 1 0 2 0 0 0 0 4 14 6
661 255 297 507 648 721 77 0 1 0 1 0 49 44 3 0 0 0 0 0 0 0 2 1 1 1 7 22 16 9 4 3 4 2 1 6 1 0 2 4 20 1 0
549 173 445 614 714 762 518 176 0 0 1 1 0 0 0 0 0 0 0 0 0 0 1 2 1 5 3 10 3 1 4 1 6 6 7 7 21 21 0 3 0 0 0
383 296 371 390 605 491 477 187 158 37 12 0 0 0 2 0 0 0 0 0 0 1 9 3 3 0 0 8 20 10 26 26 33 29 29 30 28 31 6 5 0 0 0
363 61 184 622 485 497 443 432 521 431 51 0 2 0 0 1 1 0 0 9 14 6 8 4 1 0 1 45 57 56 38 39 51 44 51 45 35 33 29 3 0 0 0
104 15 103 536 397 141 641 452 426 542 116 23 5 1 1 0 1 0 0 20 34 42 10 12 3 12 41 43 15 44 45 19 54 64 51 49 44 30 22 11 0 11 1
194 8 171 410 429 542 231 425 845 677 262 468 69 0 0 4 4 0 2 4 36 35 22 16 30 40 45 54 48 12 33 47 38 13 16 17 25 53 127 18 22 22 13
165 316 383 203 180 518 616 599 732 700 378 359 193 0 0 1 0 0 2 26 26 118 55 40 30 18 19 19 21 35 15 23 14 29 9 24 25 78 150 125 63 53 51
147 121 273 114 284 251 405 367 674 733 348 238 155 0 0 29 83 140 97 213 46 32 26 5 17 0 0 0 0 0 0 0 10 184 231 193 211 133 172 221 242 202 154
17 187 114 44 252 353 389 617 124 156 81 190 517 372 160 127 37 3 0 0 0 0 0 0 0 0 0 0 0 0 0 0 0 0 1 239 452 177 34 110 149 116 41
0 0 192 0 32 481 271 0 0 6 0 0 1 0 0 0 0 0 1 0 0 0 0 0 0 0 0 0 0 0 0 0 0 0 0 15 120 302 280 323 343 290 258
0 0 1 0 0 0 0 0 0 0 0 0 0 0 0 0 0 0 0 0 0 0 0 0 0 0 0 0 0 0 0 0 0 0 0 0 0 0 0 0 0 0 0

GFSGL_con_sbcape_045.txt.gz
CAPE
1365 1638 1911 2087 1869 1384 1239 1152 1137 1278 1311 1283 1223 964 786 730 505 212 198 252 130 38 28 56 4 4 14 133 27 3 0 0 0 50 7 26 31 11 48 1 1 1 0
1865 1985 2153 2094 2127 1887 1662 1678 1542 1286 1239 1080 898 619 575 395 343 328 300 288 78 6 0 1 0 0 1 68 22 0 0 0 2 14 19 0 31 26 20 4 1 1 0
1978 2063 1856 1499 1442 1249 1286 1137 1153 913 812 699 405 273 474 344 355 313 232 186 147 13 5 0 0 0 0 6 11 3 0 1 3 17 16 2 1 1 1 1 1 1 1
1823 1448 1092 1070 1112 955 945 835 710 697 454 148 63 163 293 394 464 468 333 158 37 0 0 0 0 2 0 4 32 8 1 6 1 0 4 1 0 1 0 0 0 1 0
1334 1314 1261 1083 918 894 795 608 236 54 13 67 144 142 14 37 193 316 329 129 0 0 0 0 1 10 4 56 66 12 0 0 0 0 0 1 1 0 0 1 0 0 0
1400 1297 1135 875 755 593 277 177 92 84 66 62 6 1 0 0 1 19 0 0 0 0 0 8 0 0 0 0 45 30 4 0 0 0 1 1 1 1 1 0 0 0 0
1136 1071 949 738 536 442 10 40 58 55 52 179 99 0 0 0 0 0 7 0 0 1 0 10 28 19 0 0 0 0 0 0 0 0 0 1 0 0 0 1 0 0 0
737 534 210 264 119 3 135 32 139 40 112 336 130 2 0 0 0 1 0 0 0 8 11 7 8 0 0 7 4 0 0 0 0 0 0 0 0 0 0 0 0 0 0
110 125 90 62 30 154 85 89 122 61 50 82 3 0 0 0 0 1 0 0 0 1 0 0 0 0 0 42 0 0 0 0 0 0 0 0 0 0 0 0 0 0 0
125 155 143 175 93 112 121 196 86 50 76 53 13 0 0 1 0 1 0 0 1 1 0 0 0 0 0 2 0 0 0 0 0 0 0 0 0 0 0 0 0 0 0
155 99 24 13 82 98 170 116 61 60 40 7 0 0 0 0 1 0 0 0 0 1 0 0 0 1 0 0 0 0 0 0 0 0 1 1 0 0 0 0 0 0 0
36 37 66 86 118 128 130 183 92 17 50 0 1 1 0 0 1 1 0 0 0 0 0 0 1 1 0 0 0 0 0 0 1 1 1 1 1 0 0 0 0 0 0
6 29 26 23 53 57 50 120 23 24 5 0 1 1 1 1 1 0 0 0 0 0 0 0 2 2 2 1 2 0 0 0 0 1 1 1 0 0 0 0 0 0 0
31 107 51 245 89 20 56 61 11 14 9 2 1 0 1 0 0 0 0 0 1 0 1 1 0 0 0 0 0 0 0 0 0 0 1 0 0 0 0 0 0 0 0
23 52 83 75 0 1 2 2 0 0 28 48 0 0 0 3 0 0 0 1 0 0 1 0 0 0 0 0 0 0 0 0 0 0 0 0 0 0 0 0 0 0 0
15 78 238 157 1 0 0 0 1 0 2 1 1 0 0 0 0 0 0 0 0 0 0 0 0 0 0 2 0 0 0 0 0 0 0 0 0 0 0 0 0 0 0
10 12 40 221 4 0 0 0 0 0 1 2 0 0 0 0 0 0 2 0 0 0 0 1 0 0 4 3 0 2 3 1 0 0 0 0 0 0 0 0 0 0 0
8 102 62 243 115 6 0 0 0 0 0 0 0 1 0 0 0 1 1 1 0 0 0 0 0 0 0 0 0 0 0 0 0 0 0 1 0 1 0 1 0 0 0
36 43 106 161 41 59 6 0 0 0 0 1 0 0 0 1 1 1 1 0 3 2 0 0 0 0 0 0 0 0 0 0 0 0 1 2 2 0 0 0 0 0 0
18 119 156 77 28 22 36 22 0 0 0 2 1 0 0 0 0 0 0 0 17 5 1 0 0 0 0 0 6 8 1 0 0 0 4 4 0 0 0 0 0 0 0
120 69 104 25 27 79 100 58 0 0 0 0 1 0 0 0 0 0 0 0 2 0 6 0 0 0 0 5 17 17 13 9 23 40 27 24 11 5 0 0 21 21 4
44 44 53 127 95 79 85 173 31 1 0 0 0 0 0 0 0 0 0 0 0 0 1 7 0 0 0 0 8 13 37 41 28 32 25 17 21 25 18 5 5 0 0
45 33 104 129 91 37 86 127 43 17 0 0 0 0 0 6 1 2 0 0 0 0 0 0 0 0 0 0 0 0 0 0 0 0 0 15 13 30 26 25 35 31 31
69 111 56 38 41 39 78 6 0 2 5 0 0 5 1 0 0 0 0 0 0 0 0 0 0 0 0 0 0 0 0 0 0 0 0 7 14 2 3 22 9 18 18
0 0 0 0 0 0 0 0 0 0 3 0 0 0 0 1 0 0 0 0 0 0 0 0 0 0 0 0 0 0 0 0 0 0 0 0 0 0 0 0 0 0 0
0 0 0 0 0 0 0 0 0 0 0 0 0 0 0 0 0 0 0 0 0 0 0 0 0 0 0 0 0 0 0 0 0 0 0 0 0 0 0 0 0 0 0

GFSGL_con_sbcape_048.txt.gz
CAPE
157 374 707 820 883 768 765 620 490 346 472 539 615 671 703 578 413 311 176 83 95 17 0 0 0 0 0 0 1 1 0 0 0 0 0 0 0 0 5 1 1 0 0
526 764 1060 1370 901 804 719 648 527 556 795 813 830 751 669 457 230 50 59 116 39 3 0 0 0 0 0 4 11 1 0 0 0 0 0 1 0 1 4 1 1 1 0
1240 1328 1525 1677 1233 1152 1020 917 836 887 851 943 809 645 543 376 113 58 98 77 7 0 0 0 0 0 0 2 1 0 0 0 0 0 1 1 1 0 1 1 1 1 1
1745 1583 1505 1719 1418 1236 1055 1034 923 878 719 625 357 310 162 95 107 130 64 11 0 0 0 0 0 0 0 0 0 0 0 0 0 0 6 1 0 1 1 1 0 1 1
1478 1265 1046 871 805 783 651 671 557 566 306 21 0 0 63 248 293 196 39 0 0 0 0 0 0 2 16 0 0 0 0 0 1 0 0 1 1 0 0 1 0 0 1
1161 977 936 880 869 643 477 139 2 0 0 0 0 0 2 0 1 5 0 0 0 0 0 0 1 0 0 0 2 0 0 0 0 0 0 1 0 0 1 0 0 0 0
1005 966 950 824 562 328 95 2 0 0 0 0 0 0 0 0 1 0 0 0 0 0 0 0 7 1 0 0 1 0 0 0 0 0 0 0 0 0 0 1 1 0 0
912 826 703 584 335 5 7 0 0 0 4 4 0 0 0 1 0 2 0 0 0 0 0 6 6 1 0 0 0 0 0 0 0 0 0 0 0 0 0 0 0 1 0
670 665 580 270 0 0 0 2 11 77 62 1 0 0 1 0 0 1 0 0 0 0 0 0 0 0 0 0 0 0 0 0 0 0 0 0 0 0 0 0 0 0 0
225 119 0 0 0 0 15 22 20 6 2 0 0 0 1 1 0 0 0 0 0 0 0 0 0 0 0 0 0 0 0 0 0 0 0 1 0 0 0 0 0 0 0
27 0 0 0 22 27 20 14 13 10 1 0 0 0 1 0 1 0 0 0 1 0 0 0 0 2 0 0 0 0 0 0 0 0 0 1 0 0 0 0 0 0 0
10 7 2 7 18 37 20 11 12 1 0 0 0 0 1 0 1 1 0 0 0 0 0 0 1 2 0 0 0 0 0 0 1 1 1 1 1 2 0 0 0 0 0
3 3 6 7 15 29 15 5 4 0 0 0 0 0 1 0 1 2 0 0 0 0 0 1 2 2 2 1 1 0 0 0 1 1 1 1 0 0 0 0 0 0 0
9 13 12 9 14 10 17 5 2 0 1 0 0 0 0 0 0 0 0 1 1 1 1 1 1 0 0 0 0 0 0 0 0 1 1 0 0 0 0 0 0 0 0
2 7 14 9 1 0 0 1 0 0 0 0 0 0 1 0 0 0 0 0 0 0 0 0 0 0 1 1 0 0 0 0 0 0 1 1 0 0 0 0 0 0 0
22 14 0 0 0 0 0 0 1 0 2 0 0 0 0 0 0 0 0 0 0 0 0 0 1 0 0 0 1 1 0 0 0 1 1 0 0 0 0 0 0 0 0
26 19 0 0 0 0 0 0 0 1 1 2 0 0 0 0 1 2 2 2 0 0 0 0 0 0 0 1 0 0 0 0 0 0 0 0 0 0 0 0 0 0 0
0 1 0 0 0 0 0 0 0 0 0 1 0 1 0 2 2 1 2 0 0 0 0 0 0 0 1 0 0 0 2 0 0 0 0 0 0 0 0 1 0 0 0
2 8 16 0 0 0 0 0 0 0 0 0 0 0 0 1 1 1 1 0 0 0 0 0 0 0 0 0 0 0 0 0 0 0 0 0 0 0 0 0 1 0 0
4 12 17 0 0 0 0 0 1 1 1 0 0 0 0 0 0 0 0 0 1 0 0 0 0 0 0 0 0 0 0 0 0 0 2 2 3 2 0 0 0 0 0
0 0 1 0 0 0 0 0 0 0 0 0 0 0 0 0 0 0 0 1 13 3 0 0 0 0 0 0 2 0 0 0 0 5 6 9 1 0 0 0 0 0 0
52 1 6 1 6 1 0 0 0 0 0 0 1 0 2 0 0 0 0 0 0 0 0 0 0 0 0 0 0 19 34 33 25 29 33 33 5 0 4 0 0 0 2
10 21 0 0 4 4 4 0 0 1 1 0 1 0 0 0 0 0 0 0 0 0 0 0 0 0 0 0 0 0 0 0 0 0 0 2 14 4 5 10 8 7 3
26 28 0 0 2 1 18 0 0 0 0 0 1 2 0 0 0 0 0 0 0 0 0 0 0 0 0 0 0 0 0 0 0 0 0 0 0 0 0 0 0 0 0
0 0 0 0 0 0 0 0 0 0 0 0 1 0 0 0 0 0 0 0 0 0 0 0 0 0 0 0 0 0 0 0 0 0 0 0 0 0 0 0 0 0 0
0 0 0 0 0 0 0 0 0 0 0 0 0 0 0 0 0 0 0 0 0 0 0 0 0 0 0 0 0 0 0 0 0 0 0 0 0 0 0 0 0 0 0